CW9944 Porsgrunn NO current weather conditions

sailwx.info

Wind from 323 at 2 knots gusting 4

Air temperature 26.7° C
Dewpoint 18.0° C

Last reported at 2014-Jul-28 15:44 UTC.
Time now 2014-Jul-28 16:24 UTC

Location: N 59°07' E 009°39'.
View on Google Maps.

See reports from other nearby stations

  
Tides and Currents Weather Stations Pressure Air Temp Water Temp Dewpoint Dewpoint Depression Visibility Wind Speed Wind Dir Waves Ship Positions
date/time (UTC)wind fromknots sea level pressurealtimeterstation pressurevisibilityair tempwater tempwave heightnotes
2014-Jul-28 15:44 323 2 gusting 4 26.7
2014-Jul-28 15:34 26.7
2014-Jul-28 15:24 022 4 gusting 5 27.2
2014-Jul-28 15:14 045 3 gusting 4 27.2
2014-Jul-28 15:04 039 0 gusting 4 27.2
2014-Jul-28 14:54 040 1 gusting 6 27.2
2014-Jul-28 14:44 045 2 gusting 5 27.2
2014-Jul-28 14:34 338 2 gusting 8 27.8
2014-Jul-28 14:24 315 3 gusting 8 27.8
2014-Jul-28 14:14 045 2 gusting 5 27.8
2014-Jul-28 14:04 342 5 gusting 6 27.8
2014-Jul-28 13:54 022 5 gusting 5 27.8
2014-Jul-28 13:44 27.8
2014-Jul-28 13:34 342 2 gusting 6 27.8
2014-Jul-28 13:24 346 3 gusting 6 27.8
2014-Jul-28 13:14 022 5 gusting 6 27.8
2014-Jul-28 13:04 27.8
2014-Jul-28 12:54 348 5 gusting 6 27.8
2014-Jul-28 12:44 28.3
2014-Jul-28 12:34 022 2 gusting 7 28.9
2014-Jul-28 12:24 337 6 gusting 6 28.9
2014-Jul-28 12:14 068 3 gusting 7 29.4
2014-Jul-28 12:04 355 5 gusting 6 29.4
2014-Jul-28 11:54 351 2 gusting 8 30.0
2014-Jul-28 11:44 007 30.0
2014-Jul-28 11:34 018 0 gusting 7 30.0
2014-Jul-28 11:24 344 4 gusting 5 30.0
2014-Jul-28 11:14 045 2 gusting 4 30.6
2014-Jul-28 10:44 058 0 gusting 1 30.0
2014-Jul-28 10:35 269 30.0
2014-Jul-28 10:24 357 0 gusting 0 30.0
2014-Jul-28 10:14 045 29.4
2014-Jul-28 10:04 29.4
2014-Jul-28 09:54 104 0 gusting 1 30.0
2014-Jul-28 09:44 225 29.4
2014-Jul-28 09:34 045 29.4
2014-Jul-28 09:24 153 1 gusting 1 29.4
2014-Jul-28 09:14 135 0 gusting 1 29.4
2014-Jul-28 09:04 193 28.9
2014-Jul-28 08:54 177 28.3
2014-Jul-28 08:44 068 28.3
2014-Jul-28 08:34 022 28.3
2014-Jul-28 08:24 073 0 gusting 2 28.3
2014-Jul-28 08:14 112 27.2
2014-Jul-28 08:04 180 27.2
2014-Jul-28 07:54 162 26.1
2014-Jul-28 07:44 202 25.6
2014-Jul-28 07:34 153 0 gusting 1 25.0
2014-Jul-28 07:24 150 0 gusting 0 23.9
2014-Jul-28 07:14 022 1 gusting 1 23.3
2014-Jul-28 07:04 090 22.2
2014-Jul-28 06:54 128 22.2
2014-Jul-28 06:44 315 22.8